Location: Hamilton
(43.2500°N, 79.8330°W)
Time: 18:49:39
(UTC-04:00)

Amateur Radio Satellites - All Passes

Search period start: 25 July 2017 18:19
Search period end: 26 July 2017 18:19
Location: Hamilton, 43.2500°N, 79.8330°W

Satellite Date Start Highest point End Downlink Frequencies (MHz)
Time Altitude Azimuth
RS-15 25 Jul 18:31:13 18:43:00 49° 320° (NW) 18:54:52 29.354- 29.394
XW-2D 25 Jul 18:37:30 18:41:16 89° 52° (NE) 18:45:02 145.860 - 145.880
XW-2B 25 Jul 18:47:36 18:51:21 71° 260° (W) 18:55:06 145.730 - 145.750
HO-68 25 Jul 18:56:38 19:03:22 45° 65° (ENE) 19:10:07 435.675
XW-2C 25 Jul 19:05:14 19:08:47 41° 262° (W) 19:12:21 145.795 - 145.815
CUBESAT XI-V 25 Jul 19:09:04 19:12:26 20° 296° (WNW) 19:15:49 437.345
KKS-1 25 Jul 19:09:40 19:13:37 32° 292° (WNW) 19:17:34 437.445
NUDT-PHONESAT 25 Jul 19:10:43 19:14:16 47° 261° (W) 19:17:50 437.300
CUBEBUG 2 25 Jul 19:23:12 19:27:08 27° 68° (ENE) 19:31:01 437.445
KAITUO 1B 25 Jul 19:26:19 19:29:35 30° 263° (W) 19:32:52 145.475/437.950
NO-84 25 Jul 19:27:10 19:30:37 29° 229° (SW) 19:34:15 435.350 FM
LilacSat-2 25 Jul 19:30:07 19:32:59 21° 266° (W) 19:35:53 437.200
CUTE 1.7 + AOD 2 25 Jul 19:37:21 19:41:30 67° 74° (ENE) 19:45:41 437.475
STARS 25 Jul 19:37:44 19:41:48 36° 291° (WNW) 19:45:49 437.465
AO-73 25 Jul 19:38:47 19:40:20 12° 62° (ENE) 19:41:54 145.935
XW-2F 25 Jul 19:44:04 19:46:26 16° 268° (W) 19:48:48 145.980 - 146.000
CUTE-I 25 Jul 19:45:19 19:49:56 29° 265° (W) 19:54:34 437.470
SEEDS 25 Jul 19:48:32 19:52:35 55° 74° (ENE) 19:56:40 437.485
YUBILEINY 25 Jul 20:00:15 20:09:05 76° 280° (W) 20:17:58 435.215
ISS 25 Jul 20:15:07 20:16:14 11° 131° (SE) 20:17:23 437.550
XW-2A 25 Jul 20:19:15 20:22:35 56° 260° (W) 20:25:55 145.665 - 145.685
UWE-3 25 Jul 20:19:20 20:23:50 60° 74° (ENE) 20:28:14 435.000/436.395/437.385
Tancredo 1 25 Jul 20:27:04 20:29:49 37° 140° (SE) 20:32:34 437.200
AAUSAT CUBESAT 2 25 Jul 20:30:12 20:34:17 75° 75° (ENE) 20:38:25 437.432
ZACube-1 25 Jul 20:31:57 20:36:11 45° 72° (ENE) 20:40:21 437.345
STRAND 1 25 Jul 20:33:11 20:38:11 52° 100° (E) 20:43:08 437.568
AO-85 25 Jul 20:39:52 20:42:57 20° 43° (NE) 20:46:09 145.980
HO-68 25 Jul 20:44:37 20:51:10 37° 263° (W) 20:57:45 435.675
RS-15 25 Jul 20:49:35 20:59:33 27° 352° (N) 21:09:23 29.354- 29.394
nSIGHT-1 25 Jul 20:54:46 20:57:35 28° 137° (SE) 21:00:24 .
Oscar 11 25 Jul 20:56:56 21:01:08 56° 74° (ENE) 21:05:21 .
CUBEBUG 2 25 Jul 20:59:25 21:03:37 32° 264° (W) 21:07:47 437.445
BEESAT 3 25 Jul 21:05:08 21:08:37 27° 46° (NE) 21:12:04 437.485
AO-73 25 Jul 21:11:34 21:15:59 76° 257° (WSW) 21:20:20 145.935
CUTE 1.7 + AOD 2 25 Jul 21:16:44 21:17:47 11° 271° (W) 21:18:50 437.475
SEEDS 25 Jul 21:26:43 21:28:36 13° 270° (W) 21:30:31 437.485
DELFI C3 25 Jul 21:27:16 21:30:41 29° 69° (ENE) 21:34:07 145.870
EO-88 25 Jul 21:44:33 21:47:38 27° 70° (ENE) 21:50:45 145.990 - 145.960
BEESAT 2 25 Jul 21:46:27 21:49:56 26° 46° (NE) 21:53:23 435.950
ISS 25 Jul 21:49:00 21:52:14 90° 200° (SSW) 21:55:31 437.550
UWE-3 25 Jul 21:58:14 22:00:37 14° 270° (W) 22:03:00 435.000/436.395/437.385
FO-29 25 Jul 22:01:01 22:07:03 29° 91° (E) 22:12:29 435.910
YUBILEINY 25 Jul 22:02:15 22:07:34 17° 302° (WNW) 22:12:55 435.215
Tancredo 1 25 Jul 22:02:36 22:05:15 30° 338° (NNW) 22:07:55 437.200
ZACube-1 25 Jul 22:09:40 22:12:39 18° 268° (W) 22:15:37 437.345
STRAND 1 25 Jul 22:13:12 22:16:59 21° 298° (WNW) 22:20:45 437.568
AO-85 25 Jul 22:19:28 22:23:37 56° 240° (WSW) 22:28:02 145.980
TIGRISAT 25 Jul 22:20:40 22:23:16 16° 91° (E) 22:25:50 435.000
nSIGHT-1 25 Jul 22:30:48 22:33:54 41° 335° (NNW) 22:36:59 .
Oscar 11 25 Jul 22:35:29 22:37:37 13° 270° (W) 22:39:46 .
BEESAT 3 25 Jul 22:42:39 22:46:12 31° 244° (WSW) 22:49:40 437.485
PRISM 25 Jul 22:55:43 22:59:29 32° 97° (E) 23:03:14 437.425
DELFI C3 25 Jul 23:02:22 23:05:27 22° 266° (W) 23:08:34 145.870
RS-15 25 Jul 23:06:09 23:17:04 35° 27° (NNE) 23:27:31 29.354- 29.394
UNISAT 6 25 Jul 23:11:54 23:16:12 61° 101° (E) 23:20:25 437.425
EO-88 25 Jul 23:18:36 23:21:19 20° 266° (W) 23:24:02 145.990 - 145.960
LO-87 25 Jul 23:19:12 23:22:44 50° 74° (ENE) 23:26:17 145.935 - 145.965
BEESAT 2 25 Jul 23:24:03 23:27:43 33° 244° (WSW) 23:31:21 435.950
ISS 25 Jul 23:26:21 23:29:03 23° 346° (NNW) 23:31:46 437.550
SPROUT 25 Jul 23:38:41 23:41:08 15° 63° (ENE) 23:43:34 437.525
Tancredo 1 25 Jul 23:39:22 23:41:18 16° 358° (N) 23:43:15 437.200
FO-29 25 Jul 23:45:31 23:52:27 52° 292° (WNW) 23:58:35 435.910
ESTCUBE 1 25 Jul 23:45:35 23:50:01 66° 74° (ENE) 23:54:29 437.505/2401.250
M-CUBED/EXP-1 PRIME 25 Jul 23:47:29 23:51:56 46° 104° (ESE) 23:56:25 437.505
AIST 2D 25 Jul 23:52:25 23:54:56 18° 94° (E) 23:57:26 435.315
TIGRISAT 25 Jul 23:56:05 00:00:15 47° 288° (WNW) 00:04:20 435.000
nSIGHT-1 26 Jul 00:08:30 00:10:54 19° 355° (N) 00:13:16 .
50 SAT 26 Jul 00:18:00 00:18:23 10° 63° (ENE) 00:18:46 437.505
VELOX 1 26 Jul 00:27:56 00:32:05 41° 70° (ENE) 00:36:17 145.980
PRISM 26 Jul 00:31:18 00:34:35 23° 294° (WNW) 00:37:52 437.425
DX 1 26 Jul 00:32:29 00:35:08 16° 62° (ENE) 00:37:47 434.975-435.025
UNISAT 6 26 Jul 00:50:12 00:52:23 14° 298° (WNW) 00:54:33 437.425
LO-87 26 Jul 00:55:31 00:56:28 11° 270° (W) 00:57:24 145.935 - 145.965
DUCHIFAT 1 26 Jul 00:57:53 01:01:48 38° 98° (E) 01:05:41 145.980
POLYITAN 1 26 Jul 01:01:32 01:05:40 53° 100° (E) 01:09:44 437.675
ISS 26 Jul 01:03:53 01:06:19 19° 6° (N) 01:08:45 437.550
UKube-1 26 Jul 01:12:12 01:15:48 26° 67° (ENE) 01:19:25 .
SPROUT 26 Jul 01:12:20 01:16:34 56° 260° (W) 01:20:49 437.525
QB50P2 26 Jul 01:14:35 01:18:50 83° 103° (ESE) 01:23:01 145.880/145.840
Tancredo 1 26 Jul 01:14:57 01:17:26 24° 18° (NNE) 01:19:55 437.200
O/OREOS (USA 219) 26 Jul 01:16:15 01:20:39 53° 63° (ENE) 01:25:04 437.305
RS-15 26 Jul 01:19:22 01:31:37 84° 55° (NE) 01:43:09 29.354- 29.394
M-CUBED/EXP-1 PRIME 26 Jul 01:22:28 01:26:02 23° 300° (WNW) 01:29:38 437.505
BUGSAT 1 26 Jul 01:23:48 01:26:55 21° 94° (E) 01:30:00 437.445
AIST 2D 26 Jul 01:25:11 01:28:08 26° 290° (WNW) 01:31:05 435.315
ESTCUBE 1 26 Jul 01:25:22 01:27:16 12° 271° (W) 01:29:10 437.505/2401.250
NANOSAT C BR1 26 Jul 01:25:46 01:30:00 90° 316° (NW) 01:34:11 145.865
EO-79 26 Jul 01:26:20 01:30:34 80° 283° (WNW) 01:34:44 145.935-145.965
FO-29 26 Jul 01:34:04 01:35:39 11° 314° (NW) 01:37:13 435.910
nSIGHT-1 26 Jul 01:45:24 01:48:05 23° 15° (NNE) 01:50:46 .
50 SAT 26 Jul 01:47:19 01:50:38 52° 260° (W) 01:54:00 437.505
VELOX 1 26 Jul 02:05:31 02:08:42 19° 267° (W) 02:11:55 145.980
DX 1 26 Jul 02:06:36 02:10:52 55° 259° (W) 02:15:10 434.975-435.025
MOZHAYETS 4 26 Jul 02:23:47 02:25:41 12° 60° (ENE) 02:27:35
Oscar 19 26 Jul 02:31:58 02:36:57 47° 99° (E) 02:41:55 437.125/150
DUCHIFAT 1 26 Jul 02:34:11 02:37:13 20° 295° (WNW) 02:40:12 145.980
POLYITAN 1 26 Jul 02:38:38 02:41:01 15° 297° (WNW) 02:43:23 437.675
ISS 26 Jul 02:40:15 02:43:24 43° 26° (NNE) 02:46:31 437.550
UKube-1 26 Jul 02:47:56 02:51:43 29° 263° (W) 02:55:32 .
Tancredo 1 26 Jul 02:50:06 02:53:01 63° 217° (SW) 02:55:56 437.200
QB50P2 26 Jul 02:53:26 02:53:56 10° 300° (WNW) 02:54:27 145.880/145.840
O/OREOS (USA 219) 26 Jul 02:56:55 02:59:35 16° 261° (W) 03:02:16 437.305
BUGSAT 1 26 Jul 02:58:40 03:02:21 32° 291° (WNW) 03:05:58 437.445
Gurwin Techsat 1B 26 Jul 03:05:17 03:10:35 61° 101° (ESE) 03:15:49 435.225
BEESAT 26 Jul 03:05:23 03:09:54 44° 70° (ENE) 03:14:26 436.000
ITUPSAT 1 26 Jul 03:19:04 03:23:45 59° 72° (ENE) 03:28:28 437.325
nSIGHT-1 26 Jul 03:21:33 03:24:48 87° 209° (SSW) 03:28:02 .
RS-15 26 Jul 03:33:14 03:42:37 28° 258° (WSW) 03:51:39 29.354- 29.394
MOZHAYETS 4 26 Jul 03:57:37 04:02:12 78° 258° (WSW) 04:06:48
PCSat 26 Jul 04:07:27 04:09:14 12° 102° (ESE) 04:11:00 145.827
Oscar 19 26 Jul 04:11:55 04:15:58 24° 296° (WNW) 04:20:02 437.125/150
YUBILEINY 26 Jul 04:15:48 04:18:52 12° 52° (NE) 04:21:53 435.215
ISS 26 Jul 04:16:55 04:19:45 27° 223° (SW) 04:22:34 437.550
ITAMSAT 1 26 Jul 04:25:40 04:30:34 40° 98° (E) 04:35:24 435.822/435.867
AO-7 26 Jul 04:26:47 04:34:46 46° 100° (E) 04:42:40 .
KKS-1 26 Jul 04:32:12 04:36:01 28° 67° (ENE) 04:39:50 437.445
CUBESAT XI-V 26 Jul 04:34:57 04:39:22 51° 72° (ENE) 04:43:50 437.345
BEESAT 26 Jul 04:44:17 04:47:51 21° 267° (W) 04:51:27 436.000
Gurwin Techsat 1B 26 Jul 04:46:18 04:50:03 20° 299° (WNW) 04:53:47 435.225
ITUPSAT 1 26 Jul 04:59:05 05:01:57 16° 269° (W) 05:04:49 437.325
STARS 26 Jul 04:59:26 05:02:55 23° 66° (ENE) 05:06:26 437.465
nSIGHT-1 26 Jul 04:59:48 05:00:43 11° 230° (SW) 05:01:38 .
PCSat 26 Jul 05:46:19 05:51:44 85° 120° (ESE) 05:57:12 145.827
ITAMSAT 1 26 Jul 06:05:29 06:09:50 27° 296° (WNW) 06:14:09 435.822/435.867
KKS-1 26 Jul 06:08:33 06:12:28 30° 264° (W) 06:16:26 437.445
YUBILEINY 26 Jul 06:09:18 06:17:57 58° 76° (ENE) 06:26:29 435.215
CUBESAT XI-V 26 Jul 06:14:05 06:17:03 17° 269° (W) 06:20:01 437.345
DOVE 4 26 Jul 06:14:41 06:19:30 35° 95° (E) 06:24:06 437.250
STRAND 1 26 Jul 06:14:49 06:16:41 12° 57° (ENE) 06:18:34 437.568
AO-7 26 Jul 06:19:43 06:27:28 44° 300° (WNW) 06:35:11 .
XW-2B 26 Jul 06:21:16 06:22:13 11° 90° (E) 06:23:09 145.730 - 145.750
CUTE-I 26 Jul 06:22:19 06:24:57 14° 89° (E) 06:27:35 437.470
STARS 26 Jul 06:34:58 06:39:03 36° 262° (W) 06:43:10 437.465
XW-2C 26 Jul 06:37:14 06:39:48 17° 93° (E) 06:42:23 145.795 - 145.815
NUDT-PHONESAT 26 Jul 06:41:03 06:43:00 14° 92° (E) 06:44:58 437.300
KAITUO 1B 26 Jul 06:56:16 06:59:13 22° 95° (E) 07:02:10 145.475/437.950
LilacSat-2 26 Jul 07:01:11 07:04:41 35° 98° (E) 07:08:11 437.200
SO-50 26 Jul 07:02:08 07:06:41 85° 123° (ESE) 07:11:13 436.795
XW-2F 26 Jul 07:13:22 07:16:58 44° 99° (E) 07:20:35 145.980 - 146.000
CUTE 1.7 + AOD 2 26 Jul 07:23:33 07:24:35 11° 89° (E) 07:25:36 437.475
PCSat 26 Jul 07:32:00 07:35:51 19° 319° (NW) 07:39:42 145.827
XW-2D 26 Jul 07:42:52 07:46:38 70° 284° (WNW) 07:50:23 145.860 - 145.880
STRAND 1 26 Jul 07:49:52 07:55:02 82° 74° (ENE) 08:00:12 437.568
DOVE 4 26 Jul 07:52:26 07:57:03 31° 293° (WNW) 08:01:31 437.250
XW-2B 26 Jul 07:53:02 07:56:43 54° 286° (WNW) 08:00:24 145.730 - 145.750
CUTE-I 26 Jul 08:00:14 08:05:37 79° 286° (WNW) 08:10:57 437.470
YUBILEINY 26 Jul 08:06:50 08:14:13 32° 277° (W) 08:21:35 435.215
HO-68 26 Jul 08:10:22 08:17:05 42° 98° (E) 08:23:46 435.675
XW-2C 26 Jul 08:10:41 08:14:05 33° 289° (WNW) 08:17:28 145.795 - 145.815
AAUSAT CUBESAT 2 26 Jul 08:13:29 08:14:38 11° 89° (E) 08:15:47 437.432
NUDT-PHONESAT 26 Jul 08:13:38 08:17:05 39° 288° (WNW) 08:20:32 437.300
FO-29 26 Jul 08:14:15 08:19:30 20° 54° (NE) 08:24:45 435.910
AO-7 26 Jul 08:15:58 08:18:03 11° 322° (NW) 08:20:08 .
KAITUO 1B 26 Jul 08:30:04 08:33:11 25° 291° (WNW) 08:36:17 145.475/437.950
LilacSat-2 26 Jul 08:36:10 08:38:42 17° 294° (WNW) 08:41:13 437.200
SO-50 26 Jul 08:44:49 08:47:44 17° 323° (NW) 08:50:39 436.795
XW-2F 26 Jul 08:48:45 08:50:44 14° 295° (WNW) 08:52:44 145.980 - 146.000
CUBEBUG 2 26 Jul 08:48:48 08:52:55 47° 99° (E) 08:56:56 437.445
CUTE 1.7 + AOD 2 26 Jul 08:56:37 09:00:52 69° 285° (WNW) 09:05:05 437.475
AO-73 26 Jul 08:59:22 09:02:10 18° 92° (E) 09:04:59 145.935
SEEDS 26 Jul 09:06:27 09:10:42 85° 280° (W) 09:14:56 437.485
XW-2A 26 Jul 09:12:26 09:15:44 62° 285° (WNW) 09:19:01 145.665 - 145.685
TIGRISAT 26 Jul 09:20:05 09:23:12 18° 64° (ENE) 09:26:18 435.000
STRAND 1 26 Jul 09:32:45 09:34:50 12° 272° (W) 09:36:54 437.568
CUTE-I 26 Jul 09:42:47 09:44:46 12° 304° (NW) 09:46:45 437.470
UWE-3 26 Jul 09:44:12 09:48:23 70° 285° (WNW) 09:52:30 435.000/436.395/437.385
PRISM 26 Jul 09:45:57 09:49:23 27° 68° (ENE) 09:52:52 437.425
AAUSAT CUBESAT 2 26 Jul 09:46:21 09:50:30 66° 286° (WNW) 09:54:38 437.432
ZACube-1 26 Jul 09:55:02 09:59:12 84° 103° (ESE) 10:03:20 437.345
FO-29 26 Jul 09:55:40 10:03:21 82° 73° (ENE) 10:11:15 435.910
HO-68 26 Jul 09:58:12 10:04:46 41° 297° (WNW) 10:11:18 435.675
UNISAT 6 26 Jul 10:11:01 10:15:35 61° 74° (ENE) 10:20:05 437.425
Oscar 11 26 Jul 10:18:49 10:23:09 80° 283° (WNW) 10:27:27 .
CUBEBUG 2 26 Jul 10:26:30 10:29:09 16° 296° (WNW) 10:31:45 437.445
M-CUBED/EXP-1 PRIME 26 Jul 10:34:19 10:37:57 59° 69° (ENE) 10:41:55 437.505
AO-73 26 Jul 10:34:44 10:38:35 39° 289° (WNW) 10:42:25 145.935
DELFI C3 26 Jul 10:37:09 10:40:58 40° 98° (E) 10:44:45 145.870
NO-84 26 Jul 10:45:16 10:47:34 20° 129° (SE) 10:50:01 435.350 FM
EO-88 26 Jul 10:45:19 10:48:34 29° 97° (E) 10:51:47 145.990 - 145.960
TIGRISAT 26 Jul 10:55:00 10:59:31 51° 261° (W) 11:03:59 435.000
PRISM 26 Jul 11:21:08 11:24:36 26° 264° (W) 11:28:06 437.425
ESTCUBE 1 26 Jul 11:38:41 11:40:44 13° 90° (E) 11:42:47 437.505/2401.250
FO-29 26 Jul 11:43:25 11:49:06 22° 272° (W) 11:54:56 435.910
UNISAT 6 26 Jul 11:50:12 11:52:39 14° 270° (W) 11:55:06 437.425
DUCHIFAT 1 26 Jul 11:50:24 11:54:11 32° 69° (ENE) 11:57:58 145.980
POLYITAN 1 26 Jul 11:54:40 11:58:44 45° 72° (ENE) 12:02:49 437.675
AIST 2D 26 Jul 11:59:35 12:03:02 65° 259° (W) 12:06:30 435.315
QB50P2 26 Jul 12:07:36 12:11:50 69° 75° (ENE) 12:16:06 145.880/145.840
M-CUBED/EXP-1 PRIME 26 Jul 12:12:06 12:12:53 11° 267° (W) 12:13:42 437.505
DELFI C3 26 Jul 12:12:46 12:15:25 17° 295° (WNW) 12:18:04 145.870
BUGSAT 1 26 Jul 12:14:34 12:17:31 19° 65° (ENE) 12:20:28 437.445
Oscar 19 26 Jul 12:15:13 12:16:24 11° 56° (NE) 12:17:37 437.125/150
NANOSAT C BR1 26 Jul 12:18:14 12:22:28 75° 75° (ENE) 12:26:44 145.865
LO-87 26 Jul 12:18:17 12:21:51 54° 100° (E) 12:25:21 145.935 - 145.965
EO-79 26 Jul 12:19:07 12:23:22 85° 78° (ENE) 12:27:40 145.935-145.965
EO-88 26 Jul 12:19:27 12:22:01 19° 293° (WNW) 12:24:36 145.990 - 145.960
NO-84 26 Jul 12:21:52 12:24:48 38° 328° (NNW) 12:27:57 435.350 FM
BEESAT 3 26 Jul 12:32:44 12:36:15 30° 115° (ESE) 12:39:49 437.485
AO-85 26 Jul 12:35:21 12:38:54 31° 116° (ESE) 12:42:24 145.980
Gurwin Techsat 1B 26 Jul 12:50:21 12:53:26 16° 59° (ENE) 12:56:32 435.225
PCSat 26 Jul 12:50:53 12:54:25 17° 39° (NE) 12:57:56 145.827
SPROUT 26 Jul 12:57:25 13:00:45 22° 94° (E) 13:04:03 437.525
ESTCUBE 1 26 Jul 13:13:28 13:17:57 65° 286° (WNW) 13:22:26 437.505/2401.250
BEESAT 2 26 Jul 13:15:51 13:19:20 29° 115° (ESE) 13:22:52 435.950
DUCHIFAT 1 26 Jul 13:26:31 13:29:53 23° 266° (W) 13:33:15 145.980
POLYITAN 1 26 Jul 13:31:59 13:34:44 17° 268° (W) 13:37:29 437.675
AO-7 26 Jul 13:38:29 13:43:30 18° 45° (NE) 13:48:30 .
QB50P2 26 Jul 13:47:00 13:48:05 11° 271° (W) 13:49:11 145.880/145.840
BUGSAT 1 26 Jul 13:48:32 13:52:33 42° 261° (W) 13:56:36 437.445
Oscar 19 26 Jul 13:49:44 13:54:50 76° 74° (ENE) 13:59:58 437.125/150
VELOX 1 26 Jul 13:52:43 13:57:12 73° 102° (ESE) 14:01:38 145.980
SO-50 26 Jul 13:52:54 13:55:53 17° 38° (NE) 13:58:53 436.795
LO-87 26 Jul 13:53:48 13:54:47 11° 297° (WNW) 13:55:46 145.935 - 145.965
DX 1 26 Jul 13:54:04 13:57:35 23° 95° (E) 14:01:04 434.975-435.025
NO-84 26 Jul 14:01:16 14:03:04 14° 350° (N) 14:04:57 435.350 FM
BEESAT 3 26 Jul 14:10:18 14:13:48 28° 314° (NW) 14:17:20 437.485
ITAMSAT 1 26 Jul 14:10:24 14:11:07 10° 55° (NE) 14:11:51 435.822/435.867
AO-85 26 Jul 14:15:57 14:19:17 25° 314° (NW) 14:22:37 145.980
Gurwin Techsat 1B 26 Jul 14:27:24 14:32:43 78° 257° (WSW) 14:38:04 435.225
SPROUT 26 Jul 14:32:51 14:36:42 34° 290° (WNW) 14:40:32 437.525
UKube-1 26 Jul 14:33:12 14:37:17 39° 99° (E) 14:41:20 .
PCSat 26 Jul 14:33:12 14:38:40 83° 59° (ENE) 14:44:05 145.827
50 SAT 26 Jul 14:40:39 14:44:04 62° 285° (WNW) 14:47:27 437.505
BEESAT 2 26 Jul 14:53:31 14:57:02 29° 313° (NW) 15:00:38 435.950
ITUPSAT 1 26 Jul 15:20:05 15:22:27 14° 90° (E) 15:24:48 437.325
AO-7 26 Jul 15:26:30 15:34:46 68° 67° (ENE) 15:43:05 .
O/OREOS (USA 219) 26 Jul 15:29:28 15:33:48 50° 108° (ESE) 15:38:08 437.305
DX 1 26 Jul 15:29:50 15:33:49 34° 291° (WNW) 15:37:47 434.975-435.025
VELOX 1 26 Jul 15:31:03 15:33:02 13° 300° (WNW) 15:35:01 145.980
Oscar 19 26 Jul 15:32:15 15:34:43 13° 271° (W) 15:37:11 437.125/150
SO-50 26 Jul 15:32:22 15:36:55 83° 238° (WSW) 15:41:30 436.795
NO-84 26 Jul 15:39:44 15:41:45 14° 12° (NNE) 15:43:52 435.350 FM
RS-15 26 Jul 15:42:42 15:54:08 50° 110° (ESE) 16:05:44 29.354- 29.394
ITAMSAT 1 26 Jul 15:44:25 15:49:37 69° 73° (ENE) 15:54:50 435.822/435.867
MOZHAYETS 4 26 Jul 15:52:06 15:55:40 22° 93° (E) 15:59:13
UKube-1 26 Jul 16:09:49 16:13:02 21° 295° (WNW) 16:16:15 .
PCSat 26 Jul 16:18:35 16:21:18 14° 257° (WSW) 16:24:01 145.827
CUBESAT XI-V 26 Jul 16:32:20 16:34:03 12° 89° (E) 16:35:44 437.345
BEESAT 26 Jul 16:41:37 16:46:24 90° 319° (NW) 16:51:10 436.000
ITUPSAT 1 26 Jul 16:56:00 17:00:45 67° 286° (WNW) 17:05:26 437.325
O/OREOS (USA 219) 26 Jul 17:10:19 17:13:30 19° 307° (NW) 17:16:41 437.305
NO-84 26 Jul 17:16:33 17:20:02 37° 31° (NNE) 17:23:47 435.350 FM
DOVE 4 26 Jul 17:20:29 17:25:02 38° 69° (ENE) 17:29:48 437.250
AO-7 26 Jul 17:21:12 17:28:06 28° 266° (W) 17:35:03 .
XW-2C 26 Jul 17:21:18 17:22:15 11° 63° (ENE) 17:23:11 145.795 - 145.815
YUBILEINY 26 Jul 17:22:02 17:24:42 12° 71° (ENE) 17:27:22 435.215
ITAMSAT 1 26 Jul 17:26:32 17:29:34 15° 270° (W) 17:32:37 435.822/435.867
MOZHAYETS 4 26 Jul 17:28:43 17:32:56 38° 290° (WNW) 17:37:08
KAITUO 1B 26 Jul 17:38:29 17:40:11 13° 64° (ENE) 17:41:54 145.475/437.950
CUTE-I 26 Jul 17:44:20 17:48:44 27° 64° (ENE) 17:53:09 437.470
LilacSat-2 26 Jul 17:44:26 17:47:18 21° 68° (ENE) 17:50:10 437.200
XW-2F 26 Jul 17:55:25 17:58:28 25° 69° (ENE) 18:01:34 145.980 - 146.000
KKS-1 26 Jul 17:57:41 18:02:00 46° 99° (E) 18:06:17 437.445
CUBESAT XI-V 26 Jul 18:07:14 18:11:55 75° 285° (WNW) 18:16:36 437.345
